"startDT [UTC]","vpos","CH4 [ppm]","stdev(CH4) [ppm]","CO2 [ppm]","stdev(CO2) [ppm]","H2O [ppm]","stdev(H2O)","p_LGR [torr]","T_LGR [C]","mt1_LGR [us]","mt2_LGR [us]","T_ECpre [C]","T_EC1 [C]","T_EC2 [C]","p_inlet [hPa]","p_in [hPa]","p_out [hPa]","T_inlet [C]","RH_inlet [%]","dwpt_inlet [C]","T_vent [C]","RH_vent [%]","dwpt_vent [C]","flow_vent [l min-1]","flow_inlet [l min-1]","dwpt_sample [C]","T_room [C]"
2012-09-25 00:00:00,0.0,1.9051,0.0009,399.06,0.29,243.5,30.1,138.07,30.91,24.66,36.51,0.93,-3.26,-27.04,-48,40,-930,24.3,13.6,-5.2,24.2,1.8,-29.2,5.73,2.58,-27.5,29.4
2012-09-25 00:01:00,0.0,1.9056,0.0010,399.03,0.30,245.3,32.5,138.07,30.91,24.66,36.51,0.94,-2.30,-27.03,-48,41,-930,24.3,13.7,-5.2,24.2,1.8,-29.3,5.73,2.57,-27.6,29.4
2012-09-25 00:02:00,0.0,1.9064,0.0011,398.97,0.30,239.4,33.4,138.07,30.91,24.65,36.52,0.95,-1.38,-27.02,-48,41,-930,24.3,13.9,-5.0,24.2,1.8,-29.3,5.73,2.56,-27.6,29.4
2012-09-25 00:03:00,0.0,1.9061,0.0009,398.94,0.25,246.1,29.0,138.07,30.90,24.66,36.52,0.94,-0.51,-27.01,-48,41,-930,24.3,13.9,-5.0,24.2,1.8,-29.4,5.73,2.55,-27.6,29.4
2012-09-25 00:04:00,0.0,1.9058,0.0010,398.95,0.31,233.9,34.7,138.07,30.90,24.65,36.52,0.93,0.31,-27.01,-48,40,-930,24.3,13.7,-5.2,24.2,1.8,-29.3,5.73,2.57,-27.6,29.4
2012-09-25 00:05:00,0.0,1.9051,0.0011,398.91,0.26,238.2,27.9,138.07,30.90,24.66,36.51,0.91,1.10,-26.99,-48,40,-930,24.3,13.6,-5.2,24.2,1.8,-29.3,5.73,2.58,-27.7,29.4
2012-09-25 00:06:00,0.0,1.9051,0.0010,398.90,0.23,224.7,30.3,138.07,30.90,24.66,36.51,0.92,1.83,-26.98,-48,40,-930,24.3,13.7,-5.1,24.2,1.8,-29.2,5.73,2.58,-27.7,29.5
2012-09-25 00:07:00,0.0,1.9064,0.0013,398.91,0.27,232.7,34.9,138.06,30.90,24.66,36.52,0.91,2.46,-26.98,-48,40,-930,24.3,14.0,-4.9,24.2,1.7,-29.7,5.73,2.56,-27.7,29.5
2012-09-25 00:08:00,0.0,1.9056,0.0012,399.00,0.29,229.8,34.1,138.07,30.90,24.66,36.51,0.90,2.82,-26.96,-48,40,-930,24.3,13.7,-5.2,24.2,1.7,-29.7,5.73,2.55,-27.8,29.5
2012-09-25 00:09:00,0.0,1.9054,0.0008,398.82,0.29,231.0,25.4,138.07,30.90,24.65,36.52,0.91,2.96,-26.95,-48,40,-930,24.3,13.5,-5.3,24.2,1.7,-29.8,5.73,2.57,-27.8,29.4
2012-09-25 00:10:00,0.0,1.9048,0.0011,398.82,0.26,231.1,28.4,138.07,30.90,24.66,36.52,0.92,3.27,-26.94,-48,40,-930,24.4,13.7,-5.2,24.2,1.7,-29.8,5.73,2.58,-27.8,29.4
2012-09-25 00:11:00,0.0,1.9053,0.0010,398.88,0.26,216.6,31.2,138.07,30.90,24.66,36.52,0.94,3.67,-26.93,-48,40,-930,24.4,13.6,-5.2,24.2,1.7,-29.8,5.73,2.58,-27.8,29.4
2012-09-25 00:12:00,0.0,1.9054,0.0008,398.78,0.29,227.4,30.5,138.06,30.91,24.66,36.52,0.91,4.13,-26.92,-48,40,-930,24.4,13.7,-5.1,24.2,1.7,-29.9,5.73,2.56,-27.9,29.4
2012-09-25 00:13:00,0.0,1.9053,0.0010,398.96,0.25,209.8,30.2,138.07,30.91,24.66,36.52,0.91,4.61,-26.91,-48,40,-930,24.4,13.6,-5.2,24.2,1.7,-30.0,5.73,2.55,-27.9,29.4
2012-09-25 00:14:00,0.0,1.9047,0.0009,398.91,0.22,213.4,25.2,138.07,30.90,24.66,36.52,0.93,5.08,-26.90,-48,40,-930,24.3,13.6,-5.3,24.2,1.7,-30.0,5.73,2.56,-27.9,29.3
2012-09-25 00:15:00,0.0,1.9055,0.0011,398.90,0.28,211.5,36.5,138.07,30.90,24.66,36.52,0.93,5.48,-26.88,-48,40,-930,24.4,13.6,-5.2,24.2,1.7,-30.0,5.73,2.58,-27.9,29.4
2012-09-25 00:16:00,0.0,1.9050,0.0010,399.04,0.28,215.9,33.1,138.07,30.91,24.66,36.51,0.93,5.89,-26.87,-48,40,-930,24.3,13.6,-5.3,24.2,1.7,-30.0,5.73,2.58,-27.9,29.4
2012-09-25 00:17:00,0.0,1.9062,0.0012,398.87,0.23,218.1,30.8,138.07,30.91,24.66,36.52,0.94,6.40,-26.86,-48,40,-930,24.3,13.8,-5.1,24.2,1.7,-30.0,5.73,2.56,-27.9,29.4
2012-09-25 00:18:00,0.0,1.9061,0.0011,398.85,0.27,210.1,31.5,138.07,30.91,24.65,36.51,0.93,6.83,-26.86,-48,40,-930,24.3,13.7,-5.2,24.2,1.7,-30.0,5.73,2.55,-27.9,29.4
2012-09-25 00:19:00,0.0,1.9058,0.0011,398.79,0.31,210.5,30.6,138.07,30.91,24.65,36.52,0.94,7.40,-26.85,-48,40,-930,24.3,13.7,-5.2,24.2,1.7,-29.8,5.73,2.55,-27.9,29.4
2012-09-25 00:20:00,0.0,1.9058,0.0008,398.95,0.22,218.5,37.4,138.07,30.91,24.66,36.52,0.94,7.85,-26.83,-48,40,-930,24.3,13.6,-5.2,24.2,1.7,-30.0,5.73,2.57,-28.0,29.4
2012-09-25 00:21:00,0.0,1.9052,0.0011,398.81,0.27,215.8,31.9,138.06,30.91,24.66,36.51,0.94,8.28,-26.83,-48,40,-930,24.3,13.6,-5.2,24.2,1.7,-29.9,5.73,2.58,-28.0,29.4
2012-09-25 00:22:00,0.0,1.9054,0.0009,398.89,0.23,214.4,27.9,138.07,30.91,24.66,36.51,0.94,8.69,-26.82,-48,40,-930,24.4,13.8,-5.1,24.2,1.7,-30.0,5.73,2.57,-28.0,29.4
2012-09-25 00:23:00,0.0,1.9048,0.0010,398.82,0.30,215.6,35.4,138.06,30.91,24.66,36.51,0.94,9.08,-26.81,-48,40,-930,24.4,13.7,-5.2,24.2,1.7,-30.0,5.73,2.56,-28.0,29.4
2012-09-25 00:24:00,0.0,1.9060,0.0012,398.83,0.28,221.1,31.7,138.06,30.91,24.66,36.52,0.94,9.44,-26.80,-48,40,-930,24.4,13.7,-5.1,24.2,1.7,-30.0,5.73,2.55,-28.0,29.4
2012-09-25 00:25:00,0.0,1.9048,0.0009,398.82,0.29,212.7,34.0,138.06,30.91,24.66,36.52,0.94,9.80,-26.79,-48,40,-930,24.4,13.7,-5.1,24.3,1.7,-30.0,5.73,2.56,-28.0,29.4
2012-09-25 00:26:00,0.0,1.9049,0.0012,398.81,0.30,215.5,28.5,138.06,30.91,24.65,36.52,0.94,10.15,-26.78,-48,40,-930,24.4,13.4,-5.4,24.2,1.7,-30.0,5.73,2.57,-28.0,29.4
2012-09-25 00:27:00,0.0,1.9056,0.0010,398.70,0.28,213.0,26.9,138.06,30.91,24.65,36.52,0.95,10.47,-26.77,-48,40,-930,24.3,13.6,-5.2,24.2,1.7,-30.0,5.73,2.57,-28.0,29.4
2012-09-25 00:28:00,0.0,1.9045,0.0007,398.71,0.25,215.9,31.1,138.06,30.91,24.65,36.52,0.94,10.79,-26.76,-48,40,-930,24.4,13.5,-5.4,24.2,1.7,-30.0,5.73,2.57,-28.0,29.4
2012-09-25 00:29:00,0.0,1.9048,0.0010,398.76,0.26,212.7,32.0,138.07,30.91,24.65,36.52,0.93,11.09,-26.75,-48,40,-930,24.3,13.4,-5.4,24.2,1.7,-30.0,5.73,2.55,-28.0,29.4
2012-09-25 00:30:00,0.0,1.9039,0.0009,398.76,0.30,216.8,28.5,138.07,30.91,24.65,36.51,0.93,11.38,-26.74,-48,40,-929,24.3,13.3,-5.6,24.2,1.7,-30.0,5.73,2.56,-28.0,29.4
2012-09-25 00:31:00,0.0,1.9047,0.0009,398.84,0.32,215.8,27.1,138.06,30.91,24.66,36.52,0.94,11.66,-26.74,-48,40,-930,24.3,13.3,-5.5,24.2,1.7,-30.0,5.73,2.56,-28.0,29.4
2012-09-25 00:32:00,0.0,1.9044,0.0009,398.79,0.30,213.7,35.3,138.07,30.91,24.66,36.52,0.94,11.93,-26.73,-48,40,-930,24.3,13.4,-5.4,24.3,1.7,-29.9,5.73,2.57,-28.0,29.4
2012-09-25 00:33:00,0.0,1.9053,0.0009,398.73,0.25,199.6,34.3,138.07,30.91,24.66,36.52,0.94,12.19,-26.72,-47,40,-930,24.4,13.6,-5.2,24.3,1.7,-30.0,5.73,2.58,-28.1,29.5
2012-09-25 00:34:00,0.0,1.9054,0.0008,398.84,0.28,209.1,32.2,138.07,30.91,24.65,36.52,0.93,12.43,-26.72,-48,40,-930,24.4,13.5,-5.4,24.2,1.7,-30.1,5.73,2.57,-28.0,29.5
2012-09-25 00:35:00,0.0,1.9039,0.0011,398.76,0.35,204.9,28.3,138.07,30.91,24.66,36.52,0.94,12.67,-26.71,-48,40,-930,24.4,13.3,-5.6,24.2,1.6,-30.2,5.73,2.55,-28.0,29.5
2012-09-25 00:36:00,0.0,1.9046,0.0009,398.72,0.27,205.9,35.7,138.07,30.91,24.66,36.52,0.93,12.90,-26.70,-48,40,-930,24.4,13.3,-5.6,24.2,1.6,-30.2,5.73,2.55,-28.0,29.5
2012-09-25 00:37:00,0.0,1.9036,0.0010,398.87,0.29,210.8,30.3,138.07,30.91,24.66,36.51,0.92,13.12,-26.70,-48,40,-930,24.4,13.1,-5.7,24.2,1.6,-30.2,5.73,2.56,-28.0,29.5
2012-09-25 00:38:00,0.0,1.9041,0.0008,398.69,0.27,211.0,31.8,138.07,30.91,24.66,36.52,0.93,13.33,-26.70,-48,40,-930,24.4,13.3,-5.5,24.3,1.6,-30.1,5.73,2.57,-28.1,29.5
2012-09-25 00:39:00,0.0,1.9044,0.0010,398.71,0.26,204.3,27.3,138.07,30.91,24.65,36.52,0.93,13.53,-26.68,-48,40,-930,24.4,13.1,-5.7,24.3,1.6,-30.2,5.73,2.58,-28.1,29.5
2012-09-25 00:40:00,0.0,1.9038,0.0012,398.73,0.29,209.5,31.3,138.06,30.91,24.66,36.51,0.93,13.72,-26.68,-48,40,-930,24.4,13.1,-5.7,24.2,1.6,-30.1,5.73,2.56,-28.1,29.5
2012-09-25 00:41:00,0.0,1.9033,0.0010,398.65,0.24,212.5,30.4,138.07,30.91,24.65,36.52,0.93,13.91,-26.68,-48,40,-930,24.4,12.9,-5.9,24.3,1.6,-30.1,5.73,2.55,-28.1,29.4
2012-09-25 00:42:00,0.0,1.9032,0.0011,398.60,0.29,207.4,26.5,138.07,30.91,24.65,36.52,0.93,14.09,-26.67,-48,40,-930,24.4,13.0,-5.9,24.2,1.6,-30.2,5.73,2.55,-28.1,29.4
2012-09-25 00:43:00,0.0,1.9039,0.0008,398.73,0.32,207.3,29.0,138.06,30.92,24.66,36.52,0.94,14.26,-26.67,-48,40,-930,24.4,13.2,-5.6,24.3,1.6,-30.2,5.73,2.56,-28.1,29.5
2012-09-25 00:44:00,0.0,1.9044,0.0009,398.73,0.31,202.0,23.7,138.06,30.92,24.65,36.52,0.92,14.42,-26.66,-48,40,-930,24.4,13.2,-5.6,24.3,1.6,-30.1,5.73,2.57,-28.1,29.5
2012-09-25 00:45:00,0.0,1.9034,0.0011,398.59,0.29,209.1,29.8,138.06,30.92,24.66,36.52,0.92,14.58,-26.66,-48,40,-930,24.4,13.0,-5.8,24.3,1.6,-30.1,5.73,2.57,-28.1,29.5
2012-09-25 00:46:00,0.0,1.9039,0.0011,398.75,0.25,207.6,27.9,138.06,30.92,24.65,36.51,0.95,14.73,-26.65,-48,40,-930,24.4,13.0,-5.8,24.3,1.6,-30.2,5.73,2.56,-28.1,29.5
2012-09-25 00:47:00,0.0,1.9041,0.0011,398.69,0.25,214.9,26.3,138.06,30.92,24.66,36.51,0.94,14.88,-26.64,-48,40,-930,24.4,13.2,-5.6,24.3,1.6,-30.1,5.73,2.56,-28.1,29.5
2012-09-25 00:48:00,0.0,1.9034,0.0010,398.60,0.25,206.9,31.6,138.06,30.92,24.66,36.52,0.95,15.01,-26.64,-48,40,-930,24.4,13.1,-5.7,24.3,1.6,-30.1,5.73,2.55,-28.1,29.5
2012-09-25 00:49:00,0.0,1.9040,0.0012,398.71,0.33,202.1,29.7,138.06,30.92,24.65,36.51,0.93,15.15,-26.64,-48,40,-930,24.4,13.0,-5.8,24.3,1.6,-30.2,5.73,2.56,-28.1,29.5
2012-09-25 00:50:00,0.0,1.9044,0.0010,398.51,0.26,208.1,28.1,138.07,30.92,24.66,36.52,0.94,15.28,-26.63,-48,40,-930,24.4,13.2,-5.6,24.3,1.6,-30.2,5.73,2.57,-28.1,29.5
2012-09-25 00:51:00,0.0,1.9046,0.0008,398.65,0.29,208.3,27.8,138.07,30.92,24.66,36.51,0.93,15.40,-26.62,-48,40,-930,24.4,13.4,-5.4,24.3,1.6,-30.2,5.73,2.57,-28.1,29.5
2012-09-25 00:52:00,0.0,1.9047,0.0012,398.70,0.33,204.8,29.7,138.07,30.92,24.66,36.52,0.94,15.51,-26.62,-48,40,-930,24.4,13.4,-5.4,24.3,1.6,-30.1,5.73,2.57,-28.1,29.5
2012-09-25 00:53:00,0.0,1.9034,0.0009,398.59,0.29,215.9,36.1,138.07,30.92,24.66,36.52,0.93,15.62,-26.62,-48,40,-930,24.4,13.1,-5.7,24.3,1.6,-30.1,5.73,2.56,-28.1,29.5
2012-09-25 00:54:00,0.0,1.9042,0.0012,398.59,0.31,214.1,29.6,138.06,30.92,24.66,36.52,0.94,15.72,-26.62,-48,40,-930,24.4,13.1,-5.7,24.3,1.6,-30.1,5.73,2.55,-28.1,29.5
2012-09-25 00:55:00,0.0,1.9037,0.0009,398.62,0.25,206.0,28.4,138.06,30.92,24.65,36.52,0.93,15.82,-26.62,-48,40,-930,24.4,13.0,-5.8,24.3,1.6,-30.2,5.73,2.56,-28.1,29.5
2012-09-25 00:56:00,0.0,1.9040,0.0011,398.52,0.28,205.6,26.8,138.06,30.92,24.66,36.52,0.94,15.93,-26.61,-48,40,-930,24.4,13.1,-5.7,24.3,1.6,-30.1,5.73,2.57,-28.1,29.5
2012-09-25 00:57:00,0.0,1.9042,0.0010,398.56,0.31,205.6,29.0,138.06,30.92,24.65,36.52,0.95,16.02,-26.60,-48,40,-930,24.4,13.1,-5.7,24.3,1.6,-30.2,5.73,2.58,-28.1,29.5
2012-09-25 00:58:00,0.0,1.9051,0.0010,398.55,0.26,207.4,27.5,138.06,30.92,24.65,36.52,0.92,16.11,-26.60,-48,40,-930,24.4,13.3,-5.5,24.3,1.6,-30.2,5.73,2.57,-28.1,29.5
2012-09-25 00:59:00,0.0,1.9044,0.0010,398.56,0.28,201.0,34.5,138.06,30.92,24.66,36.52,0.95,16.20,-26.59,-48,40,-930,24.4,13.3,-5.5,24.3,1.6,-30.1,5.73,2.55,-28.0,29.4
2012-09-25 01:00:00,0.0,1.9034,0.0010,398.62,0.24,208.2,30.5,138.06,30.93,24.66,36.51,0.92,16.27,-26.59,-48,40,-930,24.4,13.1,-5.7,24.3,1.6,-30.1,5.73,2.55,-28.1,29.4
2012-09-25 01:01:00,0.0,1.9030,0.0012,398.51,0.29,197.3,29.7,138.06,30.92,24.66,36.51,0.93,16.35,-26.59,-48,40,-930,24.4,12.9,-5.9,24.3,1.6,-30.2,5.73,2.56,-28.1,29.4
2012-09-25 01:02:00,0.0,1.9029,0.0012,398.51,0.33,206.2,30.6,138.06,30.92,24.66,36.52,0.92,16.43,-26.59,-48,40,-930,24.4,13.0,-5.8,24.3,1.6,-30.1,5.73,2.57,-28.1,29.5
2012-09-25 01:03:00,0.0,1.9038,0.0009,398.50,0.31,207.1,26.3,138.06,30.92,24.66,36.52,0.96,16.50,-26.58,-48,40,-930,24.4,13.1,-5.7,24.3,1.6,-30.2,5.73,2.58,-28.1,29.5
2012-09-25 01:04:00,0.0,1.9037,0.0009,398.57,0.30,202.8,30.4,138.06,30.93,24.66,36.51,0.94,16.57,-26.58,-48,40,-930,24.4,13.3,-5.5,24.3,1.6,-30.2,5.73,2.56,-28.1,29.5
2012-09-25 01:05:00,0.0,1.9041,0.0010,398.65,0.24,200.9,29.3,138.06,30.93,24.66,36.51,0.93,16.64,-26.58,-48,40,-930,24.4,13.1,-5.6,24.3,1.6,-30.1,5.73,2.55,-28.1,29.5
2012-09-25 01:06:00,0.0,1.9032,0.0008,398.53,0.28,202.2,32.9,138.06,30.93,24.65,36.52,0.95,16.70,-26.57,-48,40,-929,24.4,13.2,-5.6,24.3,1.6,-30.1,5.73,2.55,-28.1,29.5
2012-09-25 01:07:00,0.0,1.9032,0.0010,398.46,0.31,201.2,23.0,138.07,30.92,24.65,36.52,0.92,16.76,-26.58,-48,40,-930,24.4,13.2,-5.6,24.3,1.6,-30.1,5.73,2.56,-28.1,29.5
2012-09-25 01:08:00,0.0,1.9024,0.0010,398.50,0.31,207.1,29.9,138.07,30.92,24.65,36.52,0.95,16.82,-26.57,-48,40,-930,24.5,12.9,-5.9,24.3,1.6,-30.1,5.73,2.57,-28.1,29.5
2012-09-25 01:09:00,0.0,1.9022,0.0010,398.55,0.32,204.2,31.8,138.06,30.93,24.66,36.51,0.94,16.88,-26.57,-48,40,-930,24.5,12.8,-5.9,24.3,1.6,-30.1,5.73,2.57,-28.1,29.5
2012-09-25 01:10:00,0.0,1.9028,0.0009,398.43,0.28,195.4,29.3,138.06,30.93,24.66,36.52,0.94,16.93,-26.56,-48,40,-929,24.5,13.0,-5.8,24.3,1.6,-30.1,5.73,2.56,-28.1,29.5
2012-09-25 01:11:00,0.0,1.9040,0.0010,398.41,0.27,201.0,32.0,138.06,30.93,24.66,36.52,0.94,16.98,-26.56,-48,40,-930,24.4,13.2,-5.6,24.3,1.6,-30.2,5.73,2.55,-28.1,29.5
2012-09-25 01:12:00,0.0,1.9030,0.0013,398.45,0.29,197.9,33.3,138.06,30.93,24.66,36.52,0.93,17.03,-26.56,-48,40,-929,24.4,13.0,-5.8,24.3,1.6,-30.2,5.73,2.55,-28.1,29.6
2012-09-25 01:13:00,0.0,1.9033,0.0016,398.43,0.32,199.2,28.8,138.06,30.93,24.66,36.52,0.94,17.08,-26.56,-48,40,-930,24.4,13.1,-5.7,24.3,1.6,-30.1,5.73,2.55,-28.1,29.5
2012-09-25 01:14:00,0.0,1.9023,0.0012,398.27,0.29,196.5,32.0,138.07,30.93,24.65,36.52,0.95,17.13,-26.56,-48,40,-930,24.4,12.8,-6.0,24.3,1.6,-30.2,5.73,2.56,-28.1,29.5
2012-09-25 01:15:00,0.0,1.9031,0.0013,398.45,0.26,202.3,31.9,138.06,30.93,24.66,36.52,0.95,17.17,-26.56,-48,40,-929,24.4,12.9,-5.9,24.3,1.6,-30.1,5.73,2.57,-28.1,29.5
2012-09-25 01:16:00,0.0,1.9036,0.0009,398.42,0.29,194.9,26.5,138.06,30.93,24.66,36.51,0.93,17.22,-26.56,-48,40,-930,24.4,13.1,-5.7,24.3,1.6,-30.1,5.73,2.57,-28.1,29.6
2012-09-25 01:17:00,0.0,1.9027,0.0011,398.44,0.23,198.1,34.2,138.06,30.93,24.66,36.52,0.93,17.26,-26.55,-48,40,-930,24.4,12.9,-5.9,24.3,1.6,-30.1,5.73,2.56,-28.1,29.5
2012-09-25 01:18:00,0.0,1.9034,0.0011,398.37,0.28,198.9,36.2,138.06,30.93,24.65,36.52,0.92,17.29,-26.55,-48,40,-930,24.4,13.1,-5.7,24.3,1.6,-30.1,5.73,2.55,-28.1,29.6
2012-09-25 01:19:00,0.0,1.9040,0.0010,398.42,0.35,196.8,30.6,138.07,30.93,24.65,36.52,0.94,17.32,-26.56,-48,40,-930,24.4,13.4,-5.4,24.3,1.6,-30.2,5.73,2.56,-28.1,29.6
2012-09-25 01:20:00,0.0,1.9041,0.0010,398.35,0.27,191.0,28.5,138.06,30.93,24.65,36.51,0.93,17.36,-26.56,-48,40,-929,24.4,13.3,-5.5,24.3,1.6,-30.1,5.73,2.57,-28.1,29.5
2012-09-25 01:21:00,0.0,1.9036,0.0012,398.33,0.24,200.4,31.4,138.06,30.93,24.66,36.52,0.94,17.40,-26.56,-48,40,-930,24.4,13.2,-5.6,24.3,1.6,-30.1,5.73,2.57,-28.1,29.5
2012-09-25 01:22:00,0.0,1.9025,0.0009,398.33,0.26,192.2,34.9,138.06,30.93,24.66,36.52,0.94,17.42,-26.56,-48,40,-930,24.4,13.0,-5.8,24.3,1.6,-30.1,5.73,2.57,-28.1,29.5
2012-09-25 01:23:00,0.0,1.9038,0.0010,398.38,0.31,192.6,32.8,138.06,30.93,24.65,36.51,0.93,17.45,-26.56,-48,40,-929,24.4,13.2,-5.5,24.3,1.6,-30.1,5.73,2.55,-28.1,29.5
2012-09-25 01:24:00,0.0,1.9040,0.0011,398.33,0.32,197.1,32.8,138.06,30.93,24.65,36.52,0.94,17.48,-26.55,-48,40,-930,24.4,13.4,-5.4,24.3,1.6,-30.2,5.73,2.55,-28.2,29.5
2012-09-25 01:25:00,0.0,1.9033,0.0010,398.34,0.31,197.2,34.6,138.06,30.93,24.66,36.52,0.95,17.51,-26.55,-48,40,-930,24.4,13.4,-5.4,24.3,1.6,-30.3,5.73,2.56,-28.2,29.5
2012-09-25 01:26:00,0.0,1.9033,0.0012,398.27,0.25,193.8,33.5,138.06,30.93,24.66,36.52,0.93,17.54,-26.55,-48,40,-930,24.4,13.1,-5.7,24.3,1.6,-30.2,5.73,2.57,-28.2,29.5
2012-09-25 01:27:00,0.0,1.9047,0.0011,398.39,0.29,202.9,31.2,138.06,30.93,24.65,36.52,0.95,17.56,-26.55,-48,40,-930,24.4,13.6,-5.2,24.3,1.6,-30.3,5.73,2.57,-28.2,29.5
2012-09-25 01:28:00,0.0,1.9047,0.0009,398.44,0.32,199.8,26.4,138.06,30.93,24.66,36.51,0.93,17.59,-26.56,-48,40,-929,24.4,13.7,-5.1,24.3,1.6,-30.3,5.73,2.56,-28.2,29.5
2012-09-25 01:29:00,0.0,1.9040,0.0006,398.45,0.25,203.3,35.2,138.06,30.94,24.66,36.51,0.93,17.61,-26.55,-48,40,-930,24.4,13.5,-5.3,24.3,1.6,-30.3,5.73,2.55,-28.2,29.5
2012-09-25 01:30:00,0.0,1.9034,0.0008,398.28,0.28,201.4,30.4,138.06,30.94,24.66,36.51,0.93,17.63,-26.55,-48,40,-930,24.4,13.4,-5.4,24.3,1.6,-30.3,5.73,2.55,-28.2,29.5
2012-09-25 01:31:00,0.0,1.9037,0.0008,398.31,0.33,198.5,30.4,138.07,30.94,24.66,36.52,0.93,17.65,-26.55,-48,40,-929,24.4,13.7,-5.1,24.3,1.6,-30.3,5.73,2.56,-28.2,29.5
2012-09-25 01:32:00,0.0,1.9040,0.0012,398.39,0.27,194.5,29.5,138.07,30.93,24.66,36.52,0.94,17.67,-26.55,-48,40,-930,24.4,13.7,-5.1,24.3,1.6,-30.3,5.73,2.57,-28.2,29.5
2012-09-25 01:33:00,0.0,1.9046,0.0009,398.37,0.24,197.7,27.4,138.07,30.93,24.65,36.53,0.94,17.69,-26.55,-48,40,-930,24.4,13.8,-5.0,24.3,1.6,-30.3,5.73,2.57,-28.2,29.5
2012-09-25 01:34:00,0.0,1.9052,0.0009,398.41,0.30,193.6,29.5,138.06,30.94,24.65,36.52,0.95,17.71,-26.55,-48,40,-929,24.4,13.9,-4.9,24.3,1.6,-30.3,5.73,2.56,-28.2,29.5
2012-09-25 01:35:00,0.0,1.9029,0.0010,398.35,0.34,194.2,34.2,138.07,30.94,24.66,36.52,0.94,17.73,-26.55,-48,40,-930,24.4,13.4,-5.4,24.3,1.6,-30.3,5.73,2.55,-28.2,29.4
2012-09-25 01:36:00,0.0,1.9040,0.0012,398.37,0.28,197.5,29.0,138.06,30.94,24.66,36.51,0.94,17.74,-26.55,-48,40,-930,24.4,13.5,-5.3,24.3,1.6,-30.4,5.73,2.55,-28.2,29.5
2012-09-25 01:37:00,0.0,1.9053,0.0009,398.30,0.27,190.4,33.3,138.07,30.94,24.66,36.52,0.92,17.76,-26.55,-48,40,-929,24.4,13.7,-5.2,24.3,1.6,-30.3,5.73,2.56,-28.2,29.5
2012-09-25 01:38:00,0.0,1.9047,0.0012,398.34,0.25,192.3,29.5,138.07,30.94,24.66,36.52,0.95,17.77,-26.55,-48,40,-930,24.4,13.7,-5.1,24.3,1.6,-30.3,5.73,2.57,-28.2,29.5
2012-09-25 01:39:00,0.0,1.9025,0.0009,398.32,0.28,202.8,35.3,138.06,30.94,24.66,36.52,0.93,17.79,-26.55,-48,40,-930,24.4,13.5,-5.3,24.3,1.6,-30.3,5.73,2.58,-28.2,29.4
2012-09-25 01:40:00,0.0,1.9036,0.0011,398.38,0.28,191.1,34.9,138.07,30.94,24.65,36.52,0.93,17.80,-26.55,-48,40,-929,24.4,13.9,-5.0,24.3,1.6,-30.3,5.73,2.56,-28.2,29.5
2012-09-25 01:41:00,0.0,1.9031,0.0010,398.35,0.25,197.9,27.9,138.07,30.94,24.66,36.51,0.93,17.82,-26.55,-48,40,-930,24.4,13.8,-5.0,24.3,1.6,-30.3,5.73,2.55,-28.2,29.5
2012-09-25 01:42:00,0.0,1.9050,0.0012,398.37,0.26,197.6,30.6,138.07,30.93,24.66,36.51,1.02,17.76,-26.55,-48,40,-930,24.4,14.2,-4.6,24.3,1.6,-30.3,5.73,2.55,-28.2,29.4
2012-09-25 01:43:00,0.0,1.9032,0.0012,398.33,0.32,199.5,29.3,138.07,30.93,24.66,36.52,1.12,16.52,-26.56,-48,40,-929,24.4,13.7,-5.2,24.3,1.6,-30.3,5.73,2.56,-28.2,29.4
2012-09-25 01:44:00,0.0,1.9040,0.0009,398.45,0.26,193.7,29.0,138.07,30.94,24.66,36.52,1.01,14.35,-26.56,-48,40,-930,24.4,13.9,-5.0,24.3,1.6,-30.3,5.73,2.57,-28.2,29.4
2012-09-25 01:45:00,0.0,1.9029,0.0009,398.39,0.26,198.1,29.8,138.07,30.93,24.66,36.52,1.00,12.02,-26.56,-48,40,-930,24.4,13.5,-5.3,24.3,1.6,-30.3,5.73,2.57,-28.2,29.5
2012-09-25 01:46:00,0.0,1.9020,0.0010,398.25,0.26,190.1,24.3,138.06,30.93,24.66,36.52,1.07,9.72,-26.56,-48,40,-930,24.3,13.3,-5.5,24.3,1.6,-30.3,5.73,2.55,-28.2,29.5
2012-09-25 01:47:00,0.0,1.9031,0.0012,398.26,0.28,191.2,29.6,138.07,30.93,24.66,36.52,0.99,7.49,-26.55,-48,40,-930,24.3,13.7,-5.2,24.3,1.6,-30.4,5.73,2.55,-28.2,29.5
2012-09-25 01:48:00,0.0,1.9055,0.0011,398.44,0.30,193.4,35.9,138.07,30.93,24.65,36.51,1.01,5.36,-26.54,-48,40,-930,24.3,14.0,-4.9,24.3,1.6,-30.3,5.73,2.56,-28.3,29.5
2012-09-25 01:49:00,0.0,1.9031,0.0010,398.36,0.24,195.9,34.9,138.07,30.93,24.66,36.52,1.11,3.33,-26.53,-48,40,-930,24.3,13.6,-5.3,24.3,1.6,-30.3,5.73,2.58,-28.2,29.5
2012-09-25 01:50:00,0.0,1.9042,0.0011,398.39,0.26,197.1,34.3,138.07,30.93,24.65,36.52,0.99,1.40,-26.52,-48,40,-930,24.4,13.8,-5.1,24.3,1.6,-30.4,5.73,2.56,-28.2,29.5
2012-09-25 01:51:00,0.0,1.9050,0.0011,398.55,0.33,195.3,30.9,138.07,30.93,24.66,36.51,1.00,-0.43,-26.50,-48,40,-930,24.3,14.1,-4.8,24.3,1.6,-30.3,5.73,2.55,-28.2,29.5
2012-09-25 01:52:00,0.0,1.9045,0.0011,398.40,0.30,198.7,30.0,138.07,30.93,24.66,36.51,1.07,-1.89,-26.49,-48,40,-930,24.3,13.9,-5.0,24.3,1.6,-30.4,5.73,2.56,-28.2,29.5
2012-09-25 01:53:00,0.0,1.9035,0.0012,398.25,0.30,194.0,29.0,138.07,30.93,24.66,36.52,1.05,-2.48,-26.47,-48,40,-930,24.3,13.6,-5.2,24.2,1.6,-30.3,5.73,2.57,-28.2,29.5
2012-09-25 01:54:00,0.0,1.9035,0.0009,398.27,0.32,195.4,29.2,138.07,30.93,24.66,36.52,0.97,-4.35,-26.46,-48,40,-930,24.4,13.8,-5.1,24.3,1.6,-30.1,5.73,2.57,-28.2,29.4
2012-09-25 01:55:00,0.0,1.9027,0.0010,398.25,0.31,193.0,31.6,138.07,30.93,24.66,36.52,1.04,-5.94,-26.45,-48,40,-930,24.3,13.6,-5.2,24.2,1.6,-30.2,5.73,2.56,-28.2,29.4
2012-09-25 01:56:00,0.0,1.9040,0.0010,398.21,0.23,197.9,25.7,138.07,30.93,24.65,36.52,1.08,-7.36,-26.45,-48,40,-930,24.3,13.6,-5.2,24.2,1.6,-30.2,5.73,2.55,-28.2,29.4
2012-09-25 01:57:00,0.0,1.9044,0.0010,398.25,0.32,191.9,33.2,138.07,30.93,24.66,36.52,0.98,-8.69,-26.44,-48,40,-930,24.3,14.0,-4.9,24.2,1.6,-30.1,5.73,2.56,-28.2,29.4
2012-09-25 01:58:00,0.0,1.9058,0.0008,398.38,0.29,210.1,29.4,138.07,30.93,24.65,36.52,0.99,-9.93,-26.44,-48,40,-930,24.3,14.2,-4.7,24.2,1.6,-30.2,5.73,2.58,-28.2,29.4
2012-09-25 01:59:00,0.0,1.9061,0.0010,398.39,0.23,197.9,29.4,138.07,30.93,24.65,36.52,1.05,-11.03,-26.43,-48,40,-930,24.3,14.5,-4.4,24.2,1.6,-30.2,5.73,2.57,-28.2,29.4
2012-09-25 02:00:00,0.0,1.9042,0.0011,398.38,0.32,199.2,30.6,138.07,30.92,24.66,36.51,1.06,-12.09,-26.43,-48,40,-930,24.3,14.1,-4.8,24.2,1.6,-30.2,5.73,2.55,-28.2,29.4
2012-09-25 02:01:00,0.0,1.9051,0.0013,398.48,0.30,203.6,31.0,138.07,30.92,24.65,36.51,0.96,-13.12,-26.43,-48,40,-929,24.3,14.3,-4.6,24.2,1.6,-30.2,5.73,2.55,-28.2,29.5
2012-09-25 02:02:00,0.0,1.9034,0.0010,398.37,0.26,190.5,35.4,138.07,30.92,24.66,36.52,1.00,-14.07,-26.44,-48,40,-930,24.3,13.7,-5.1,24.2,1.6,-30.2,5.73,2.58,-28.2,29.5
2012-09-25 02:03:00,0.0,1.9032,0.0012,398.38,0.24,198.5,34.8,138.07,30.92,24.66,36.52,1.07,-14.97,-26.44,-48,40,-930,24.3,13.8,-5.1,24.2,1.6,-30.2,5.73,2.58,-28.2,29.5
2012-09-25 02:04:00,0.0,1.9037,0.0013,398.48,0.31,192.1,30.7,138.07,30.92,24.65,36.51,1.01,-15.78,-26.44,-48,41,-930,24.3,13.7,-5.1,24.2,1.6,-30.2,5.73,2.55,-28.2,29.5
2012-09-25 02:05:00,0.0,1.9058,0.0009,398.39,0.26,195.9,27.2,138.07,30.92,24.66,36.51,0.96,-16.56,-26.45,-48,40,-930,24.3,14.2,-4.7,24.3,1.6,-30.2,5.73,2.55,-28.2,29.4
2012-09-25 02:06:00,0.0,1.9052,0.0011,398.22,0.30,199.4,33.7,138.07,30.92,24.65,36.53,1.03,-17.29,-26.46,-48,40,-930,24.3,13.9,-5.0,24.2,1.6,-30.2,5.73,2.57,-28.2,29.5
2012-09-25 02:07:00,0.0,1.9039,0.0008,398.30,0.29,205.0,26.9,138.07,30.92,24.65,36.52,1.06,-17.98,-26.47,-48,41,-930,24.3,13.8,-5.0,24.2,1.6,-30.2,5.73,2.58,-28.2,29.4
2012-09-25 02:08:00,0.0,1.9042,0.0010,398.31,0.25,198.4,25.8,138.07,30.92,24.65,36.52,0.99,-18.66,-26.48,-48,40,-930,24.3,13.7,-5.2,24.2,1.6,-30.2,5.73,2.57,-28.2,29.5
2012-09-25 02:09:00,0.0,1.9045,0.0009,398.39,0.28,201.4,34.6,138.07,30.92,24.66,36.51,0.97,-19.31,-26.49,-48,40,-930,24.3,13.7,-5.2,24.2,1.6,-30.2,5.73,2.54,-28.2,29.4
2012-09-25 02:10:00,0.0,1.9055,0.0011,398.31,0.26,194.3,32.6,138.07,30.92,24.66,36.52,1.01,-19.92,-26.50,-48,40,-930,24.3,14.1,-4.8,24.2,1.6,-30.3,5.73,2.56,-28.3,29.4
2012-09-25 02:11:00,0.0,1.9063,0.0012,398.37,0.27,188.4,28.1,138.07,30.92,24.66,36.52,1.07,-20.50,-26.51,-48,40,-930,24.3,14.2,-4.7,24.2,1.6,-30.3,5.73,2.58,-28.3,29.4
2012-09-25 02:12:00,0.0,1.9053,0.0013,398.42,0.26,188.3,32.5,138.07,30.92,24.65,36.51,0.98,-21.06,-26.52,-48,40,-930,24.3,14.0,-4.8,24.2,1.7,-30.1,5.73,2.57,-28.3,29.4
2012-09-25 02:13:00,0.0,1.9031,0.0011,398.37,0.26,195.0,31.0,138.07,30.92,24.66,36.51,0.96,-21.57,-26.53,-48,40,-930,24.3,14.0,-4.9,24.2,1.7,-30.0,5.73,2.55,-28.3,29.4
2012-09-25 02:14:00,0.0,1.9036,0.0013,398.39,0.28,182.8,29.2,138.07,30.92,24.66,36.51,1.00,-22.05,-26.54,-48,41,-930,24.3,14.0,-4.9,24.2,1.7,-30.0,5.73,2.56,-28.3,29.4
2012-09-25 02:15:00,0.0,1.9026,0.0010,398.34,0.26,186.4,30.2,138.07,30.92,24.66,36.52,1.04,-22.51,-26.55,-48,41,-930,24.3,13.7,-5.1,24.2,1.7,-29.9,5.73,2.58,-28.3,29.4
2012-09-25 02:16:00,0.0,1.9048,0.0010,398.24,0.22,196.1,33.4,138.07,30.92,24.65,36.52,1.02,-22.94,-26.56,-48,40,-930,24.3,14.0,-4.9,24.2,1.7,-30.0,5.73,2.57,-28.3,29.4
2012-09-25 02:17:00,0.0,1.9050,0.0012,398.40,0.28,197.5,27.8,138.07,30.91,24.66,36.51,0.95,-23.34,-26.57,-48,41,-930,24.4,14.1,-4.8,24.2,1.7,-30.1,5.73,2.55,-28.3,29.4
2012-09-25 02:18:00,0.0,1.9048,0.0013,398.45,0.29,188.8,24.9,138.07,30.91,24.65,36.51,0.97,-23.73,-26.58,-48,40,-930,24.3,14.1,-4.7,24.2,1.7,-30.1,5.73,2.56,-28.3,29.5
2012-09-25 02:19:00,0.0,1.9042,0.0009,398.35,0.26,187.8,26.3,138.07,30.91,24.66,36.52,1.05,-24.09,-26.59,-48,40,-930,24.4,14.1,-4.8,24.2,1.6,-30.3,5.73,2.58,-28.3,29.4
2012-09-25 02:20:00,0.0,1.9046,0.0010,398.37,0.24,187.6,27.0,138.07,30.91,24.65,36.51,1.05,-24.43,-26.60,-48,40,-930,24.4,13.7,-5.1,24.2,1.6,-30.3,5.73,2.58,-28.4,29.4